Regional Weather Roundup
Issued by NWS Grand Forks, ND

Home | Current Version | Previous Version | Graphics & Text | Print | Product List | Glossary On
Versions: 1 2 3 4 5 6 7 8 9 10 11 12 13 14 15 16 17 18 19 20 21 22 23 24 25 26 27 28 29 30 31 32 33 34 35 36 37 38 39 40 41 42 43 44 45 46 47 48 49 50
384
ASUS43 KFGF 210210
RWRFGF
PRAIRIE TO PINES  WEATHER ROUNDUP
NATIONAL WEATHER SERVICE EASTERN NORTH DAKOTA/GRAND FORKS ND
900 PM CDT THU JUL 20 2017

 **SATELLITE DATA USED TO AUGMENT SKY COVER AT AUTOMATED STATIONS**
 *****  WEATHER ACROSS EASTERN NORTH DAKOTA  *****

CITY           SKY/WX    TMP DP  RH WIND       PRES   REMARKS
GRAND FORKS    CLOUDY    80  63  55 E3        29.91S
GRAND FRKS AFB MOCLDY    77  64  63 SE6       29.92S
DEVILS LAKE    FAIR      78  67  68 SE12      29.91S
FARGO          FAIR      79  70  74 E6        29.91S
WAHPETON ARPT  FAIR      75  66  73 E3        29.93S
$$

 ***** WEATHER ACROSS CENTRAL AND WESTERN NORTH DAKOTA  *****

CITY           SKY/WX    TMP DP  RH WIND       PRES   REMARKS
BISMARCK       RAIN      80  61  52 N5        29.97R
MINOT          FAIR      74  58  57 E12       29.87F
JAMESTOWN      FAIR      76  68  76 E3        29.94R
MINOT AFB      FAIR      73  56  53 SE20      29.83F
GARRISON         N/A     75  61  61 NE9       29.88R
WILLISTON      FAIR      82  58  43 NE17      29.83R
DICKINSON      FAIR      71  62  73 SE17      29.82F
HETTINGER      MOCLDY    73  58  59 S20G32    29.85F
$$

 *****  OTHER AIRPORT OBSERVATIONS IN OUR AREA  *****

CITY           SKY/WX    TMP DP  RH WIND       PRES   REMARKS
WALHALLA       NOT AVBL
GRAFTON AIRPOR FAIR      73  64  73 E7        29.93S
VALLEY CITY AR FAIR      79  72  78 CALM      29.96R
CANDO          NOT AVBL
CAVALIER APRT  FAIR      72  64  78 NE5       29.91S
GWINNER        CLEAR     73  68  83 CALM      29.91S
SHEYENNE NWR     N/A     76  70  81 E3        29.95S
ROLLA            N/A     68  66  94 E5        29.95S
 ***** THE ABOVE OBSERVATIONS ARE NON NWS ARE NOT QUALITY
       CONTROLLED AND MAY MIS-REPORT RAIN FOR SNOW...
$$

  *****  WEATHER ACROSS NORTHERN MINNESOTA  *****

CITY           SKY/WX    TMP DP  RH WIND       PRES   REMARKS
FLAG ISLAND    FAIR      70  63  78 CALM      29.94F
WARROAD        FAIR      70  63  78 CALM      29.96F
ROSEAU         FAIR      70  63  78 CALM      29.95F
HALLOCK        MOCLDY    72  63  73 NE7       29.92F
THF RVR FALLS  FAIR      71  64  78 SE7       29.95F
BAUDETTE       FAIR      66  61  84 CALM      29.96S
WASKISH        FAIR      70  63  78 CALM      29.96S
CROOKSTON      FAIR      77  64  65 E6        29.92F
STEPHEN NDAWN    N/A     73  64  73 E3          N/A
GREENBUSH NDAW   N/A     72  64  78 CALM        N/A
$$
  *****  WEATHER ACROSS CENTRAL AND WEST MINNESOTA  *****

CITY           SKY/WX    TMP DP  RH WIND       PRES   REMARKS
FOSSTON        FAIR      72  64  78 CALM      29.97S
BEMIDJI        FAIR      73  58  59 CALM      29.97S
PARK RAPIDS    FAIR      79  62  56 CALM      29.98S
ELBOW LAKE     FAIR      76  71  83 SE5       29.95F
WADENA         FAIR      73  68  83 CALM      29.97S
DETROIT LAKES  FAIR      79  66  65 CALM      29.98F
MOORHEAD       FAIR      79  66  65 E5        29.93R
FERGUS FALLS   FAIR      79  66  65 E6        29.93F
MORRIS MN      FAIR      75  70  83 E5        29.93S
STAPLES        FAIR      75  66  73 CALM      29.98R
$$
  *****  WEATHER ELSEWHERE ACROSS MINNESOTA  *****

CITY           SKY/WX    TMP DP  RH WIND       PRES   REMARKS
DULUTH         FAIR      73  63  70 W6        29.97R
INTRNTL FALLS  MOCLDY    63  57  81 CALM      29.96S
ELY            FAIR      68  61  77 CALM      29.97R
CLOQUET        FAIR      75  61  60 SW5       29.98R
WHEATON        FAIR      72  68  88 E6        29.93F
BRAINERD       FAIR      74  68  81 CALM      29.98R HAZE
HIBBING        FAIR      68  62  81 CALM      29.97R
ALEXANDRIA     FAIR      77  67  71 SE5       29.98S
SAINT CLOUD    FAIR      72  70  93 CALM      29.96S
MINNEAPOLIS    FAIR      85  59  41 SE3       29.95F
$$

  *****  WEATHER ACROSS SOUTH DAKOTA  *****

CITY           SKY/WX    TMP DP  RH WIND       PRES   REMARKS
SIOUX FALLS    FAIR      81  70  69 E10       29.91S
BROOKINGS      FAIR      79  68  69 E9        29.95R
WATERTOWN      FAIR      77  64  64 SE6       29.93R
HURON          FAIR      82  71  69 SE9       29.88R
SISSETON         N/A     75  69  81 SE5       29.91R
ABERDEEN       FAIR      78  67  68 SE6       29.90R
MITCHELL       FAIR      82  73  74 SE9       29.88S
PIERRE         NOT AVBL
MOBRIDGE       FAIR      83  64  52 E15       29.84R
RAPID CITY     FAIR      89  56  32 S18G25    29.86S
$$

  *****  SOME WEATHER IN NEARBY STATES *****

CITY           SKY/WX    TMP DP  RH WIND       PRES   REMARKS
GLASGOW MT     FAIR      86  42  21 E26G38    29.76F
GREAT FALLS MT FAIR      86  28  12 W17G29    29.85R
CHEYENNE WY    MOCLDY    80  52  37 S7        30.15R
SCOTTSBLUFF NE FAIR      83  61  47 SE10      29.95F
OMAHA NE       MOCLDY    90  77  65 SE10      29.86F HX 103
DES MOINES IA  CLOUDY    92  76  59 NW3       29.90S THUNDER HX 104
DAVENPORT IA   MOCLDY    82  76  81 E5        29.96F
CHICAGO IL     FAIR      78  69  73 E6        29.97R
EAU CLAIRE WI  FAIR      75  69  81 CALM      29.97F
LA CROSSE WI   FAIR      79  71  76 CALM      29.95F
$$

  *****  SOME NATIONAL WEATHER *****

CITY           SKY/WX    TMP DP  RH WIND       PRES   REMARKS
LA GUARDIA NY  MOCLDY    81  70  69 W10       29.88R
RALEIGH NC     MOCLDY    84  70  62 S3        30.00R
ATLANTA GA     FAIR      85  69  58 NW8       30.04S
NEW ORLEANS LA FAIR      82  76  81 CALM      30.03R
OKLAHOMA CITY  FAIR      89  66  46 S9        29.98R HX  91
ALBUQUERQUE NM MOCLDY    81  53  37 SE10      30.16R
SALT LAKE CITY MOCLDY    93  52  24 SE15      29.94F HX  90
LOS ANGELES CA FAIR      71  64  78 W14       29.93R
BOISE ID       FAIR      89  37  16 N14       29.93F
SEATTLE WA     FAIR      71  50  47 SW12      30.12S
$$

*** WEATHER ACROSS MANITOBA...SASKATCHEWAN AND ONTARIO ***
                ***ONTARIO***

CITY           SKY/WX    TMP DP  RH WIND       PRES   REMARKS
GERALDTON      PTCLDY    63  48  59 W8        29.87R
THUNDER BAY    PTCLDY    66  57  72 CALM      29.91R
SIOUX LOOKOUT  PTCLDY    61  52  72 W3        29.92S
TORONTO        PTCLDY    70  63  78 SE3       29.89S
BIG TROUT LK   CLEAR     57  39  51 N7        29.86R
PICKLE LAKE    LGT RAIN  63  54  72 W8        29.87F
DRYDEN         CLEAR     66  50  55 SW6       29.95R
KENORA         MOCLDY    68  55  64 W5        29.96S
$$
                *** MANITOBA***

CITY           SKY/WX    TMP DP  RH WIND       PRES   REMARKS
BRANDON        MOCLDY    72  61  68 E6        29.90F
DAUPHIN        CLEAR     73  63  68 S3        29.87S
ISLAND LAKE    NOT AVBL
PILOT MOUND      N/A     68  63  83 SE8         N/A
THE PAS        MOCLDY    68  48  49 NE5       29.92S
THOMPSON       PTCLDY    59  39  47 N6        29.94S
WINNIPEG       MOCLDY    70  61  73 S5        29.92F
LYNN LAKE      CLEAR     61  37  41 NW6       29.96S
CHURCHILL      MOCLDY    52  39  62 CALM      29.84S
GILLAM         MOCLDY    59  41  51 NW14      29.89S
$$
                ***SASKATCHEWAN***

CITY           SKY/WX    TMP DP  RH WIND       PRES   REMARKS
ESTEVAN        MOCLDY    72  66  83 SE6       29.85R
KINDERSLEY     MOSUNNY   72  55  56 E15G22    29.78F
LLOYDMINSTER   PTSUNNY   70  59  68 E14       29.80F
PRINCE ALBERT  CLOUDY    68  61  77 E7        29.88S
REGINA         PTCLDY    77  59  53 SE12      29.82S
YORKTON        CLEAR     73  63  68 SE6       29.87S
N. BATTLEFORD  SUNNY     72  61  68 E13       29.82F
LA RONGE       MOCLDY    68  45  42 E5        29.93R
SASKATOON      TSTM      66  59  77 S10       29.96R
SWIFT CURRENT  CLOUDY    77  48  36 SE8       29.80S
$$
NOTE: THESE ARE AUTOMATED STATIONS WITH LIMITED QUALITY CONTROL
      "FAIR" INDICATES FEW OR NO CLOUDS BELOW 12,000 FEET WITH NO
      SIGNIFICANT WEATHER AND/OR OBSTRUCTIONS TO VISIBILITY.
      SKY/WX - SKY CONDITION AND SIGNIFICANT WEATHER.
      TMP - AIR TEMPERATURE.    DP   - DEWPOINT TEMPERATURE.
      RH  - RELATIVE HUMIDITY.  PRES - PRESSURE.
      HX  - HEAT INDEX.         WCI  - WIND CHILL INDEX.
$




USA.gov is the U.S. government's official web portal to all federal, state and local government web resources and services.